Rockford, IL

10:01 AM CDT on April 26, 2018 (GMT -0500)
Greater Rockford

Weather History for KRFD - December, 2014

Change the Weather History Date:

Saturday, December 13, 2014

  Actual Average Record
Temperature  
Mean Temperature 39 °F 26 °F  
Max Temperature 45 °F 34 °F 62 °F (2015)
Min Temperature 32 °F 18 °F -14 °F (1958)
Degree Days  
Heating Degree Days 26 39  
Month to date heating degree days 460 478  
Since 1 July heating degree days 2007 1813  
Cooling Degree Days 0 0  
Month to date cooling degree days 0 0  
Year to date cooling degree days 729 820  
Moisture  
Dew Point 36 °F    
Average Humidity 91    
Maximum Humidity 100    
Minimum Humidity 82    
Precipitation  
Precipitation 0.00 in 0.07 in 1.41 in (2015)
Month to date precipitation 0.15 0.96  
Year to date precipitation 32.72 35.22  
Snow  
Snow 0.00 in 0.40 in 6.60 in (1973)
Month to date snowfall T 4.3  
Since 1 July snowfall 3.6 6.1  
Snow Depth 0.00 in    
Sea Level Pressure  
Sea Level Pressure 30.19 in    
Wind  
Wind Speed 5 mph (SW)    
Max Wind Speed 14 mph    
Max Gust Speed 17 mph    
Visibility 3 miles    
Events Fog    
T = Trace of Precipitation, MM = Missing Value Source: NWS Daily Summary

Daily Weather History Graph

Daily Weather History Graph

Search for Another Location

Airport or City:

Astronomy

Dec. 13, 2014 Rise Set
Actual Time 7:16 AM CST 4:24 PM CST
Civil Twilight 6:44 AM CST 4:56 PM CST
Nautical Twilight 6:09 AM CST 5:31 PM CST
Astronomical Twilight 5:35 AM CST 6:05 PM CST
Moon 11:32 PM CST (12/13) 11:34 AM CST (12/13)
Length of Visible Light 10h 11m
Length of Day
9h 08m
Waning Gibbous, 57% of the Moon is Illuminated
Dec 13
Waning Gibbous
Dec 14
Last Quarter
Dec 21
New
Dec 28
First Quarter
Jan 4
Full

Hourly Weather History & Observations

Time (CST) Temp. Windchill Dew Point Humidity Pressure Visibility Wind Dir Wind Speed Gust Speed Precip Events Conditions
12:07 AM 36.0 °F 33.3 °F 32.0 °F 86% 30.24 in 4.0 mi WSW 3.5 mph - N/A   Overcast
12:54 AM 36.0 °F 32.1 °F 32.0 °F 86% 30.26 in 4.0 mi SW 4.6 mph - N/A   Overcast
1:54 AM 35.1 °F 32.2 °F 30.9 °F 85% 30.27 in 6.0 mi SW 3.5 mph - N/A   Overcast
2:54 AM 34.0 °F 31.0 °F 30.0 °F 85% 30.26 in 6.0 mi SW 3.5 mph - N/A Fog Mostly Cloudy
3:54 AM 32.0 °F - 30.0 °F 92% 30.25 in 4.0 mi Calm Calm - N/A Fog Overcast
4:01 AM 32.0 °F 28.7 °F 30.0 °F 92% 30.22 in 4.0 mi South 3.5 mph - N/A Fog Overcast
4:18 AM 32.0 °F 26.4 °F 30.0 °F 92% 30.22 in 4.0 mi South 5.8 mph - N/A Fog Overcast
4:40 AM 32.0 °F 28.7 °F 30.0 °F 92% 30.22 in 5.0 mi South 3.5 mph - N/A Fog Overcast
4:54 AM 33.1 °F 30.0 °F 30.0 °F 89% 30.24 in 4.0 mi South 3.5 mph - N/A Fog Mostly Cloudy
5:38 AM 34.0 °F 31.0 °F 30.9 °F 89% 30.22 in 5.0 mi South 3.5 mph - N/A Fog Overcast
5:54 AM 34.0 °F 28.8 °F 30.9 °F 89% 30.25 in 4.0 mi South 5.8 mph - N/A Fog Overcast
6:54 AM 34.0 °F 31.0 °F 32.0 °F 92% 30.25 in 4.0 mi SSW 3.5 mph - N/A Fog Overcast
7:23 AM 34.0 °F 29.8 °F 32.0 °F 92% 30.22 in 2.5 mi South 4.6 mph - N/A   Overcast
7:34 AM 34.0 °F 28.8 °F 33.1 °F 96% 30.22 in 1.0 mi South 5.8 mph - N/A   Overcast
7:51 AM 35.6 °F 30.7 °F 33.8 °F 93% 30.23 in 0.2 mi SSW 5.8 mph - N/A Fog Fog
7:54 AM 35.1 °F 31.0 °F 33.1 °F 92% 30.25 in 0.2 mi SW 4.6 mph - N/A Fog Fog
8:01 AM 36.0 °F 32.1 °F 34.0 °F 93% 30.22 in 0.2 mi WSW 4.6 mph - N/A Fog Fog
8:34 AM 37.0 °F 29.3 °F 36.0 °F 96% 30.23 in 0.2 mi West 11.5 mph - N/A Fog Fog
8:54 AM 37.9 °F 32.1 °F 36.0 °F 93% 30.24 in 0.2 mi WSW 8.1 mph - N/A Fog Fog
9:19 AM 37.9 °F 31.5 °F 37.0 °F 97% 30.22 in 0.2 mi West 9.2 mph - N/A Fog Fog
9:54 AM 37.9 °F 31.5 °F 37.0 °F 97% 30.25 in 0.5 mi West 9.2 mph - N/A Fog Fog
10:38 AM 37.9 °F 30.0 °F 36.0 °F 93% 30.21 in 1.0 mi West 12.7 mph - N/A   Overcast
10:54 AM 37.9 °F 32.1 °F 37.0 °F 97% 30.23 in 1.0 mi West 8.1 mph - N/A   Overcast
11:54 AM 39.0 °F 36.8 °F 37.9 °F 96% 30.19 in 1.0 mi WNW 3.5 mph - N/A   Overcast
12:42 PM 41.0 °F 37.1 °F 39.0 °F 93% 30.15 in 2.0 mi SW 5.8 mph - N/A   Overcast
12:54 PM 42.1 °F 37.7 °F 39.0 °F 89% 30.17 in 2.0 mi SSW 6.9 mph - N/A   Overcast
1:54 PM 42.1 °F 38.4 °F 39.9 °F 92% 30.16 in 2.0 mi South 5.8 mph - N/A   Overcast
2:54 PM 43.0 °F 39.5 °F 39.9 °F 89% 30.15 in 2.0 mi South 5.8 mph - N/A   Overcast
3:51 PM 42.8 °F 38.0 °F 39.2 °F 87% 30.14 in 1.5 mi SSW 8.1 mph - N/A   Overcast
3:54 PM 43.0 °F 38.2 °F 39.9 °F 89% 30.16 in 1.5 mi SSW 8.1 mph - N/A   Overcast
4:34 PM 42.1 °F 38.4 °F 39.9 °F 92% 30.14 in 2.0 mi SSW 5.8 mph - N/A   Overcast
4:54 PM 42.1 °F 37.7 °F 39.9 °F 92% 30.15 in 2.0 mi SSW 6.9 mph - N/A   Overcast
5:48 PM 42.8 °F 38.6 °F 41.0 °F 93% 30.13 in 3.0 mi SSW 6.9 mph - N/A   Overcast
5:54 PM 43.0 °F 38.8 °F 41.0 °F 93% 30.15 in 3.0 mi SSW 6.9 mph - N/A   Overcast
6:54 PM 44.1 °F 40.8 °F 41.0 °F 89% 30.14 in 4.0 mi SSW 5.8 mph - N/A   Overcast
7:54 PM 44.1 °F 40.8 °F 41.0 °F 89% 30.14 in 4.0 mi SSW 5.8 mph - N/A   Overcast
8:54 PM 45.0 °F 42.6 °F 41.0 °F 86% 30.12 in 4.0 mi SW 4.6 mph - N/A   Overcast
9:54 PM 44.1 °F 40.8 °F 41.0 °F 89% 30.12 in 4.0 mi SSW 5.8 mph - N/A   Overcast
10:54 PM 44.1 °F 41.5 °F 41.0 °F 89% 30.11 in 4.0 mi SSW 4.6 mph - N/A   Overcast
11:32 PM 42.1 °F 38.4 °F 39.0 °F 89% 30.08 in 4.0 mi SSW 5.8 mph - N/A Fog Shallow Fog
11:54 PM 43.0 °F 40.3 °F 39.9 °F 89% 30.10 in 3.0 mi SW 4.6 mph - N/A Fog Patches of Fog